Change the Weather History Date:

Tuesday, October 2, 2012

  Actual Average Record
Temperature  
Mean Temperature 38 °F 45 °F  
Max Temperature 48 °F 52 °F 62 °F (1967)
Min Temperature 28 °F 39 °F 24 °F (1997)
Degree Days  
Heating Degree Days 27 20  
Month to date heating degree days 54 40  
Since 1 July heating degree days 1316 1216  
Cooling Degree Days 0    
Month to date cooling degree days 0  
Year to date cooling degree days 0  
Moisture  
Dew Point 35 °F    
Average Humidity 0    
Maximum Humidity 0    
Minimum Humidity 0    
Precipitation  
Precipitation T in 0.81 in 4.85 in (1987)
Month to date precipitation T 1.62  
Year to date precipitation 86.08 104.03  
Snow  
Snow 0.00 in 0.00 in 2.00 in (1972)
Month to date snowfall 0.0 0.0  
Since 1 July snowfall T 0.0  
Since 1 September snowfall 0.0 0.0  
Snow Depth 0.00 in    
Sea Level Pressure  
Sea Level Pressure 30.53 in    
Wind  
Wind Speed 2 mph (ENE)    
Max Wind Speed 8 mph    
Max Gust Speed 12 mph    
Visibility 10 miles    
Events Rain    
T = Trace of Precipitation, MM = Missing Value Source: NWS Daily Summary

Daily Weather History Graph

Daily Weather History Graph

Search for Another Location

Airport or City:

Trip Planner

Search our weather history database for the weather conditions in past years. The results will help you decide how hot, cold, wet, or windy it might be!

Date:

Astronomy

Oct. 02, 2012 Rise Set
Actual Time 7:27 AM AKDT 6:46 PM AKDT
Civil Twilight 6:46 AM AKDT 7:27 PM AKDT
Nautical Twilight 5:59 AM AKDT 8:14 PM AKDT
Astronomical Twilight 5:08 AM AKDT 9:04 PM AKDT
Moon 7:09 PM AKDT (10/2) 10:54 AM AKDT (10/2)
Length of Visible Light 12h 40m
Length of Day
11h 18m
Waning Gibbous, 93% of the Moon is Illuminated
Oct 2
Waning Gibbous
Oct 7
Last Quarter
Oct 15
New
Oct 21
First Quarter
Oct 29
Full

Hourly Weather History & Observations

Time (AKDT) Temp. Windchill Dew Point Humidity Pressure Visibility Wind Dir Wind Speed Gust Speed Precip Events Conditions
12:53 AM 30.0 °F - 28.9 °F 96% 30.49 in 10.0 mi Calm Calm - N/A   Clear
1:53 AM 28.9 °F 25.2 °F 28.0 °F 96% 30.52 in 10.0 mi NE 3.5 mph - N/A   Clear
2:53 AM 28.0 °F - 28.0 °F 100% 30.53 in 10.0 mi Calm Calm - N/A   Clear
3:53 AM 28.9 °F - 28.0 °F 96% 30.55 in 10.0 mi Calm Calm - N/A   Clear
4:53 AM 30.0 °F - 28.9 °F 96% 30.56 in 10.0 mi Calm Calm - N/A   Scattered Clouds
5:07 AM 28.4 °F - 28.4 °F 100% 30.56 in 10.0 mi Calm Calm - N/A   Mostly Cloudy
5:53 AM 30.9 °F 27.5 °F 30.0 °F 96% 30.56 in 10.0 mi NE 3.5 mph - N/A   Scattered Clouds
6:00 AM 32.0 °F 28.7 °F 30.2 °F 93% 30.56 in 10.0 mi NE 3.5 mph - N/A   Mostly Cloudy
6:35 AM 32.0 °F 28.7 °F 30.2 °F 93% 30.56 in 10.0 mi NE 3.5 mph - N/A   Overcast
6:53 AM 32.0 °F - 30.9 °F 96% 30.57 in 10.0 mi Calm Calm - N/A   Scattered Clouds
7:53 AM 32.0 °F - 30.9 °F 96% 30.57 in 10.0 mi Calm Calm - N/A   Mostly Cloudy
8:53 AM 34.0 °F - 32.0 °F 92% 30.58 in 10.0 mi Calm Calm - N/A   Mostly Cloudy
9:53 AM 37.0 °F - 35.1 °F 93% 30.58 in 10.0 mi Calm Calm - N/A   Scattered Clouds
10:53 AM 41.0 °F 38.0 °F 36.0 °F 82% 30.58 in 10.0 mi East 4.6 mph - N/A   Mostly Cloudy
11:53 AM 45.0 °F 43.5 °F 36.0 °F 71% 30.58 in 10.0 mi East 3.5 mph - N/A   Scattered Clouds
12:53 PM 46.9 °F - 35.1 °F 63% 30.58 in 10.0 mi ESE 5.8 mph - N/A   Scattered Clouds
1:53 PM 46.9 °F - 37.0 °F 68% 30.58 in 10.0 mi SE 4.6 mph - N/A   Overcast
2:53 PM 46.9 °F - 37.0 °F 68% 30.56 in 10.0 mi East 5.8 mph - N/A   Overcast
4:53 PM 45.0 °F - 37.0 °F 74% 30.53 in 10.0 mi Calm Calm - 0.00 in Rain Light Rain
5:53 PM 43.0 °F 41.3 °F 39.9 °F 89% 30.52 in 5.0 mi ENE 3.5 mph - 0.01 in Rain Light Rain
6:23 PM 42.8 °F 41.1 °F 39.2 °F 87% 30.51 in 8.0 mi ENE 3.5 mph - 0.03 in Rain Light Rain
6:42 PM 42.8 °F 39.3 °F 39.2 °F 87% 30.51 in 8.0 mi ENE 5.8 mph - 0.04 in Rain Light Rain
6:53 PM 42.1 °F 39.2 °F 39.0 °F 89% 30.51 in 8.0 mi ENE 4.6 mph - 0.04 in Rain Light Rain
7:02 PM 41.0 °F 37.1 °F 39.2 °F 93% 30.50 in 10.0 mi ENE 5.8 mph - 0.00 in Rain Light Rain
7:27 PM 41.0 °F 36.4 °F 39.2 °F 93% 30.50 in 10.0 mi ENE 6.9 mph - 0.01 in Rain Light Rain
7:37 PM 41.0 °F 37.1 °F 39.2 °F 93% 30.50 in 10.0 mi ENE 5.8 mph - 0.01 in Rain Light Rain
7:53 PM 41.0 °F 37.1 °F 39.0 °F 93% 30.50 in 10.0 mi ENE 5.8 mph - 0.01 in Rain Light Rain
8:53 PM 39.9 °F 35.8 °F 39.0 °F 97% 30.48 in 10.0 mi ENE 5.8 mph - 0.02 in Rain Light Rain
9:53 PM 39.9 °F 35.1 °F 37.9 °F 93% 30.47 in 10.0 mi ENE 6.9 mph - 0.00 in Rain Light Rain
10:14 PM 39.2 °F 35.0 °F 37.4 °F 93% 30.46 in 10.0 mi East 5.8 mph - 0.00 in Rain Light Rain
10:53 PM 41.0 °F 37.1 °F 37.9 °F 89% 30.46 in 10.0 mi East 5.8 mph - 0.00 in Rain Light Rain
11:16 PM 41.0 °F 36.4 °F 37.4 °F 87% 30.45 in 10.0 mi East 6.9 mph - 0.01 in Rain Light Rain
11:33 PM 41.0 °F 37.1 °F 37.4 °F 87% 30.45 in 10.0 mi East 5.8 mph - 0.01 in Rain Light Rain
11:53 PM 41.0 °F 37.1 °F 37.9 °F 89% 30.45 in 10.0 mi East 5.8 mph - 0.02 in Rain Light Rain